Location: Atherton
(17.2661°S, 145.4859°E)
Time: 17:33:37
(UTC+10:00)

ACS3 Solar Sail - Pass Details

Date: 28 May 2025
Orbit: 920 x 1019 km, 97.5° (Epoch: 20 June)

Event Time Altitude Azimuth Distance (km) Brightness Sun altitude
Rises 18:29:06 0° 185° (S) 3,779 4.7 -9.3°
Reaches altitude 10° 18:31:52 10° 194° (SSW) 2,824 4.2 -9.9°
Maximum altitude 18:37:24 32° 254° (WSW) 1,681 3.7 -11.2°
Drops below altitude 10° 18:42:53 10° 315° (NW) 2,786 5.3 -12.4°
Sets 18:45:37 0° 324° (NW) 3,719 5.8 -13.0°
